Torna al catalogo

COSMOS 2251 DEB

AttivoLEO
NORAD 36531·DEBRIS·🇷🇺 Russia

Lanciato Jun 16, 1993 da Plesetsk Cosmodrome

Loading…

Prossimi Passaggi (prossime 24 ore)

TLE

AggiornatoSource: Space-Track

Epoca: Sep 14, 2026, 07:03 UTC

1 36531U 93036BCR 26257.29393470  .00004456  00000-0  13798-2 0  9997
2 36531  74.0808 229.5520 0152472 180.6043 179.4952 14.34989141634436

Traccia COSMOS 2251 DEB in tempo reale con AllMySat

Download on the App Store